"SCET";"RADIUS";"LONGITUDE";"LOCAL_TIME";"LATITUDE";"MAGNETIC_LOCAL_TIME";"MAGNETIC_LATITUDE";"JSE_X";"JSE_Y";"JSE_Z";"FREQ_CE";"METHOD";"MEASURED_VALUE";"QUALITY_INDEX";"MEASURED_ITEM";"SOLAR_WIND";"FREQ_PE";"FREQ_L0";"FREQ_R0";"FREQ_UHR";"ELECTRON_DENSITY"
"[UTC]";"[Rj where 1Rj=71492km]";"[degrees]";"[hours]";"[degrees]";"[degrees]";"[hours]";"[Rj where 1Rj=71492km]";"[Rj where 1Rj=71492km]";"[Rj where 1Rj=71492km]";"[Hz]";"[line, spec, or auto]";"[Hz]";"[0 = best, 3 = worst]";"[p, R, L or u]";"[1 if Yes, 0 if No]";"[Hz]";"[Hz]";"[Hz]";"[Hz]";"[cm-3]"
1996-09-07T04:06:56.259;1.2012e+01;1.0145e+02;2.8643e+00;4.1146e-01;1.2617e+01;-1.1298e+00;1.1855e+01;1.9052e+00;3.0895e-01;4.9566e+03;"line";4.1266e+03;1;"L";0;6.1223e+03;4.1266e+03;9.0832e+03;7.8772e+03;4.6481e-01
1996-09-07T04:07:33.593;1.2009e+01;1.0179e+02;2.8636e+00;4.1170e-01;1.2619e+01;-1.0750e+00;1.1851e+01;1.9127e+00;3.0852e-01;4.9493e+03;"line";4.0322e+03;0;"L";0;6.0179e+03;4.0322e+03;8.9815e+03;7.7917e+03;4.4909e-01
1996-09-07T04:08:10.926;1.2007e+01;1.0212e+02;2.8630e+00;4.1194e-01;1.2622e+01;-1.0202e+00;1.1847e+01;1.9202e+00;3.0809e-01;4.9440e+03;"line";4.1266e+03;0;"L";0;6.1181e+03;4.1266e+03;9.0706e+03;7.8660e+03;4.6417e-01
1996-09-07T04:08:48.259;1.2004e+01;1.0247e+02;2.8623e+00;4.1218e-01;1.2624e+01;-9.6390e-01;1.1843e+01;1.9278e+00;3.0765e-01;4.9400e+03;"line";3.7617e+03;0;"L";0;5.7213e+03;3.7617e+03;8.7017e+03;7.5589e+03;4.0592e-01
1996-09-07T04:09:25.592;1.2001e+01;1.0280e+02;2.8617e+00;4.1242e-01;1.2627e+01;-9.0900e-01;1.1839e+01;1.9353e+00;3.0722e-01;4.9454e+03;"line";3.7617e+03;0;"L";0;5.7231e+03;3.7617e+03;8.7071e+03;7.5637e+03;4.0617e-01
1996-09-07T04:10:02.926;1.1998e+01;1.0314e+02;2.8610e+00;4.1265e-01;1.2629e+01;-8.5407e-01;1.1835e+01;1.9427e+00;3.0679e-01;4.9531e+03;"line";4.7414e+03;1;"L";0;6.7798e+03;4.7414e+03;9.6945e+03;8.3963e+03;5.7000e-01
1996-09-07T04:10:40.259;1.1996e+01;1.0348e+02;2.8604e+00;4.1290e-01;1.2632e+01;-7.9760e-01;1.1831e+01;1.9504e+00;3.0635e-01;4.9661e+03;"line";3.7617e+03;1;"L";0;5.7299e+03;3.7617e+03;8.7278e+03;7.5825e+03;4.0714e-01
1996-09-07T04:11:17.592;1.1993e+01;1.0381e+02;2.8597e+00;4.1313e-01;1.2634e+01;-7.4258e-01;1.1827e+01;1.9578e+00;3.0592e-01;4.9785e+03;"line";4.4233e+03;1;"L";0;6.4488e+03;4.4233e+03;9.4019e+03;8.1470e+03;5.1572e-01
1996-09-07T04:11:54.926;1.1990e+01;1.0415e+02;2.8591e+00;4.1337e-01;1.2637e+01;-6.8753e-01;1.1823e+01;1.9653e+00;3.0549e-01;4.9737e+03;"line";5.0823e+03;1;"L";0;7.1489e+03;5.0823e+03;1.0056e+04;8.7089e+03;6.3377e-01
1996-09-07T04:12:32.259;1.1987e+01;1.0449e+02;2.8584e+00;4.1361e-01;1.2639e+01;-6.3095e-01;1.1819e+01;1.9730e+00;3.0505e-01;4.9769e+03;"line";6.1161e+03;1;"L";0;8.2368e+03;6.1161e+03;1.1093e+04;9.6237e+03;8.4133e-01
1996-09-07T04:13:09.592;1.1985e+01;1.0483e+02;2.8578e+00;4.1385e-01;1.2642e+01;-5.7583e-01;1.1815e+01;1.9804e+00;3.0462e-01;4.9858e+03;"line";5.4477e+03;1;"L";0;7.5392e+03;5.4477e+03;1.0434e+04;9.0387e+03;7.0485e-01
1996-09-07T04:13:46.926;1.1982e+01;1.0516e+02;2.8572e+00;4.1409e-01;1.2644e+01;-5.2069e-01;1.1811e+01;1.9879e+00;3.0419e-01;4.9894e+03;"line";4.7414e+03;1;"L";0;6.7924e+03;4.7414e+03;9.7308e+03;8.4280e+03;5.7214e-01
1996-09-07T04:14:24.259;1.1979e+01;1.0551e+02;2.8565e+00;4.1433e-01;1.2647e+01;-4.6402e-01;1.1807e+01;1.9955e+00;3.0375e-01;4.9927e+03;"line";3.7617e+03;1;"L";0;5.7386e+03;3.7617e+03;8.7544e+03;7.6065e+03;4.0838e-01
1996-09-07T04:15:01.592;1.1977e+01;1.0584e+02;2.8559e+00;4.1457e-01;1.2649e+01;-4.0881e-01;1.1803e+01;2.0030e+00;3.0332e-01;4.9927e+03;"line";4.0322e+03;1;"L";0;6.0324e+03;4.0322e+03;9.0249e+03;7.8305e+03;4.5126e-01
1996-09-07T04:15:38.926;1.1974e+01;1.0617e+02;2.8552e+00;4.1480e-01;1.2652e+01;-3.5358e-01;1.1799e+01;2.0104e+00;3.0289e-01;4.9950e+03;"line";4.2232e+03;1;"L";0;6.2394e+03;4.2232e+03;9.2182e+03;7.9925e+03;4.8277e-01
1996-09-07T04:16:16.259;1.1971e+01;1.0652e+02;2.8546e+00;4.1505e-01;1.2655e+01;-2.9684e-01;1.1795e+01;2.0181e+00;3.0245e-01;4.9988e+03;"line";4.2232e+03;1;"L";0;6.2408e+03;4.2232e+03;9.2221e+03;7.9959e+03;4.8297e-01
1996-09-07T04:16:53.592;1.1969e+01;1.0685e+02;2.8539e+00;4.1528e-01;1.2657e+01;-2.4156e-01;1.1791e+01;2.0255e+00;3.0202e-01;5.0092e+03;"line";4.4233e+03;1;"L";0;6.4593e+03;4.4233e+03;9.4325e+03;8.1740e+03;5.1740e-01
1996-09-07T04:17:30.925;1.1966e+01;1.0719e+02;2.8533e+00;4.1552e-01;1.2660e+01;-1.8627e-01;1.1787e+01;2.0330e+00;3.0159e-01;5.0234e+03;"line";4.7414e+03;1;"L";0;6.8043e+03;4.7414e+03;9.7648e+03;8.4578e+03;5.7414e-01
1996-09-07T04:18:08.259;1.1963e+01;1.0753e+02;2.8526e+00;4.1576e-01;1.2662e+01;-1.2946e-01;1.1783e+01;2.0406e+00;3.0114e-01;5.0324e+03;"line";4.7414e+03;1;"L";0;6.8074e+03;4.7414e+03;9.7738e+03;8.4656e+03;5.7466e-01
1996-09-07T04:18:45.592;1.1961e+01;1.0786e+02;2.8520e+00;4.1600e-01;1.2665e+01;-7.4138e-02;1.1779e+01;2.0481e+00;3.0071e-01;5.0380e+03;"line";4.5269e+03;1;"L";0;6.5802e+03;4.5269e+03;9.5649e+03;8.2874e+03;5.3694e-01
1996-09-07T04:19:22.925;1.1958e+01;1.0820e+02;2.8514e+00;4.1623e-01;1.2667e+01;-1.8799e-02;1.1775e+01;2.0555e+00;3.0028e-01;5.0402e+03;"line";4.7414e+03;1;"L";0;6.8102e+03;4.7414e+03;9.7816e+03;8.4724e+03;5.7512e-01
1996-09-07T04:20:00.259;1.1955e+01;1.0854e+02;2.8507e+00;4.1647e-01;1.2670e+01;3.8048e-02;1.1771e+01;2.0632e+00;2.9984e-01;5.0410e+03;"line";5.9762e+03;1;"L";0;8.1142e+03;5.9762e+03;1.1017e+04;9.5526e+03;8.1647e-01
1996-09-07T04:20:37.592;1.1952e+01;1.0888e+02;2.8501e+00;4.1671e-01;1.2672e+01;9.3409e-02;1.1767e+01;2.0706e+00;2.9941e-01;5.0455e+03;"line";5.9762e+03;1;"L";0;8.1159e+03;5.9762e+03;1.1022e+04;9.5564e+03;8.1680e-01
1996-09-07T04:21:14.925;1.1950e+01;1.0921e+02;2.8495e+00;4.1695e-01;1.2675e+01;1.4878e-01;1.1763e+01;2.0781e+00;2.9898e-01;5.0605e+03;"line";6.8664e+03;1;"L";0;9.0496e+03;6.8664e+03;1.1927e+04;1.0368e+04;1.0156e+00
1996-09-07T04:21:52.259;1.1947e+01;1.0955e+02;2.8488e+00;4.1719e-01;1.2677e+01;2.0565e-01;1.1759e+01;2.0857e+00;2.9854e-01;5.0674e+03;"line";6.8664e+03;1;"L";0;9.0522e+03;6.8664e+03;1.1934e+04;1.0374e+04;1.0162e+00
1996-09-07T04:22:29.592;1.1944e+01;1.0989e+02;2.8482e+00;4.1742e-01;1.2680e+01;2.6103e-01;1.1755e+01;2.0932e+00;2.9810e-01;5.0788e+03;"line";4.4233e+03;1;"L";0;6.4831e+03;4.4233e+03;9.5021e+03;8.2356e+03;5.2121e-01
1996-09-07T04:23:06.925;1.1942e+01;1.1022e+02;2.8475e+00;4.1766e-01;1.2683e+01;3.1641e-01;1.1751e+01;2.1006e+00;2.9767e-01;5.0772e+03;"line";4.3221e+03;1;"L";0;6.3738e+03;4.3221e+03;9.3993e+03;8.1488e+03;5.0378e-01
1996-09-07T04:23:44.259;1.1939e+01;1.1056e+02;2.8469e+00;4.1790e-01;1.2685e+01;3.7329e-01;1.1747e+01;2.1082e+00;2.9723e-01;5.0796e+03;"line";4.7414e+03;1;"L";0;6.8238e+03;4.7414e+03;9.8209e+03;8.5069e+03;5.7744e-01
1996-09-07T04:24:21.592;1.1936e+01;1.1090e+02;2.8463e+00;4.1813e-01;1.2688e+01;4.2867e-01;1.1743e+01;2.1157e+00;2.9680e-01;5.0827e+03;"line";4.8524e+03;1;"L";0;6.9433e+03;4.8524e+03;9.9351e+03;8.6048e+03;5.9782e-01
1996-09-07T04:24:58.925;1.1934e+01;1.1123e+02;2.8456e+00;4.1837e-01;1.2690e+01;4.8405e-01;1.1739e+01;2.1231e+00;2.9637e-01;5.0916e+03;"line";4.7414e+03;1;"L";0;6.8280e+03;4.7414e+03;9.8330e+03;8.5174e+03;5.7815e-01
1996-09-07T04:25:36.259;1.1931e+01;1.1158e+02;2.8450e+00;4.1861e-01;1.2693e+01;5.4092e-01;1.1735e+01;2.1308e+00;2.9592e-01;5.0968e+03;"line";4.8524e+03;1;"L";0;6.9482e+03;4.8524e+03;9.9492e+03;8.6171e+03;5.9867e-01
1996-09-07T04:26:13.592;1.1928e+01;1.1191e+02;2.8444e+00;4.1885e-01;1.2695e+01;5.9629e-01;1.1730e+01;2.1382e+00;2.9549e-01;5.0962e+03;"line";4.8524e+03;1;"L";0;6.9480e+03;4.8524e+03;9.9486e+03;8.6166e+03;5.9864e-01
1996-09-07T04:26:50.925;1.1926e+01;1.1224e+02;2.8437e+00;4.1908e-01;1.2698e+01;6.5165e-01;1.1726e+01;2.1457e+00;2.9506e-01;5.0912e+03;"line";4.8524e+03;1;"L";0;6.9463e+03;4.8524e+03;9.9436e+03;8.6123e+03;5.9834e-01
1996-09-07T04:27:28.258;1.1923e+01;1.1259e+02;2.8431e+00;4.1932e-01;1.2701e+01;7.0849e-01;1.1722e+01;2.1533e+00;2.9462e-01;5.0906e+03;"line";4.7414e+03;1;"L";0;6.8277e+03;4.7414e+03;9.8320e+03;8.5165e+03;5.7809e-01
1996-09-07T04:28:05.592;1.1920e+01;1.1292e+02;2.8425e+00;4.1956e-01;1.2703e+01;7.6382e-01;1.1718e+01;2.1607e+00;2.9419e-01;5.0977e+03;"line";5.2013e+03;1;"L";0;7.3190e+03;5.2013e+03;1.0299e+04;8.9193e+03;6.6428e-01
1996-09-07T09:22:24.247;1.0945e+01;2.7052e+02;2.6097e+00;5.1382e-01;1.3997e+01;3.7872e+00;9.4062e+00;5.5929e+00;8.0219e-02;6.4434e+03;"line";6.5558e+03;1;"L";0;9.2315e+03;6.5558e+03;1.2999e+04;1.1258e+04;1.0568e+00
1996-09-07T09:23:01.580;1.0944e+01;2.7085e+02;2.6094e+00;5.1396e-01;1.4000e+01;3.7366e+00;9.4005e+00;5.5997e+00;7.9758e-02;6.4287e+03;"line";6.5558e+03;2;"L";0;9.2263e+03;6.5558e+03;1.2985e+04;1.1245e+04;1.0556e+00
1996-09-07T09:23:38.914;1.0942e+01;2.7117e+02;2.6091e+00;5.1411e-01;1.4003e+01;3.6859e+00;9.3948e+00;5.6066e+00;7.9298e-02;6.4201e+03;"line";6.4059e+03;1;"L";0;9.0643e+03;6.4059e+03;1.2826e+04;1.1108e+04;1.0189e+00
1996-09-07T09:24:16.247;1.0941e+01;2.7151e+02;2.6088e+00;5.1425e-01;1.4006e+01;3.6337e+00;9.3890e+00;5.6136e+00;7.8825e-02;6.4454e+03;"line";7.7089e+03;1;"L";0;1.0446e+04;7.7089e+03;1.4154e+04;1.2274e+04;1.3531e+00
1996-09-07T09:24:53.580;1.0939e+01;2.7184e+02;2.6084e+00;5.1440e-01;1.4009e+01;3.5828e+00;9.3833e+00;5.6204e+00;7.8365e-02;6.4525e+03;"line";6.8664e+03;1;"L";0;9.5632e+03;6.8664e+03;1.3319e+04;1.1536e+04;1.1341e+00
1996-09-07T09:25:30.914;1.0938e+01;2.7216e+02;2.6081e+00;5.1454e-01;1.4012e+01;3.5318e+00;9.3777e+00;5.6272e+00;7.7904e-02;6.4269e+03;"line";7.3602e+03;2;"L";0;1.0073e+04;7.3602e+03;1.3787e+04;1.1949e+04;1.2584e+00
1996-09-07T09:26:08.247;1.0937e+01;2.7250e+02;2.6078e+00;5.1469e-01;1.4016e+01;3.4793e+00;9.3718e+00;5.6342e+00;7.7431e-02;6.4084e+03;"line";7.0272e+03;1;"L";0;9.7167e+03;7.0272e+03;1.3436e+04;1.1640e+04;1.1708e+00
1996-09-07T09:26:45.580;1.0935e+01;2.7282e+02;2.6074e+00;5.1483e-01;1.4019e+01;3.4281e+00;9.3661e+00;5.6410e+00;7.6970e-02;6.4129e+03;"line";7.5325e+03;2;"L";0;1.0249e+04;7.5325e+03;1.3945e+04;1.2090e+04;1.3026e+00
1996-09-07T09:27:22.914;1.0934e+01;2.7315e+02;2.6071e+00;5.1497e-01;1.4022e+01;3.3768e+00;9.3605e+00;5.6478e+00;7.6510e-02;6.4464e+03;"line";8.6546e+03;1;"L";0;1.1432e+04;8.6546e+03;1.5101e+04;1.3124e+04;1.6207e+00
1996-09-07T09:28:00.247;1.0933e+01;2.7349e+02;2.6068e+00;5.1511e-01;1.4025e+01;3.3240e+00;9.3546e+00;5.6548e+00;7.6037e-02;6.4392e+03;"line";6.4059e+03;1;"L";0;9.0710e+03;6.4059e+03;1.2845e+04;1.1124e+04;1.0204e+00
1996-09-07T09:28:37.580;1.0931e+01;2.7381e+02;2.6065e+00;5.1526e-01;1.4028e+01;3.2726e+00;9.3489e+00;5.6616e+00;7.5576e-02;6.4302e+03;"line";5.7058e+03;1;"L";0;8.3214e+03;5.7058e+03;1.2136e+04;1.0516e+04;8.5870e-01
1996-09-07T09:29:14.914;1.0930e+01;2.7414e+02;2.6061e+00;5.1540e-01;1.4031e+01;3.2210e+00;9.3432e+00;5.6685e+00;7.5116e-02;6.4013e+03;"line";4.8524e+03;1;"L";0;7.3897e+03;4.8524e+03;1.1254e+04;9.7767e+03;6.7717e-01
1996-09-07T09:29:52.247;1.0928e+01;2.7448e+02;2.6058e+00;5.1554e-01;1.4034e+01;3.1680e+00;9.3374e+00;5.6754e+00;7.4642e-02;6.4005e+03;"line";7.5325e+03;1;"L";0;1.0245e+04;7.5325e+03;1.3933e+04;1.2080e+04;1.3015e+00
1996-09-07T09:30:29.580;1.0927e+01;2.7480e+02;2.6055e+00;5.1568e-01;1.4037e+01;3.1163e+00;9.3316e+00;5.6822e+00;7.4182e-02;6.3927e+03;"line";4.7414e+03;1;"L";0;7.2657e+03;4.7414e+03;1.1134e+04;9.6777e+03;6.5465e-01
1996-09-07T09:31:06.913;1.0926e+01;2.7513e+02;2.6052e+00;5.1582e-01;1.4040e+01;3.0645e+00;9.3259e+00;5.6890e+00;7.3721e-02;6.3961e+03;"line";6.4059e+03;1;"L";0;9.0558e+03;6.4059e+03;1.2802e+04;1.1087e+04;1.0170e+00
1996-09-07T09:31:44.247;1.0924e+01;2.7546e+02;2.6048e+00;5.1596e-01;1.4043e+01;3.0112e+00;9.3201e+00;5.6960e+00;7.3248e-02;6.3869e+03;"line";6.5558e+03;1;"L";0;9.2114e+03;6.5558e+03;1.2943e+04;1.1209e+04;1.0522e+00
1996-09-07T09:32:21.580;1.0923e+01;2.7579e+02;2.6045e+00;5.1610e-01;1.4046e+01;2.9592e+00;9.3144e+00;5.7028e+00;7.2787e-02;6.3881e+03;"line";8.0741e+03;1;"L";0;1.0806e+04;8.0741e+03;1.4462e+04;1.2553e+04;1.4480e+00
1996-09-07T09:32:58.913;1.0922e+01;2.7612e+02;2.6042e+00;5.1624e-01;1.4049e+01;2.9072e+00;9.3086e+00;5.7096e+00;7.2326e-02;6.4068e+03;"line";6.5558e+03;1;"L";0;9.2185e+03;6.5558e+03;1.2963e+04;1.1226e+04;1.0538e+00
1996-09-07T09:33:36.247;1.0920e+01;2.7645e+02;2.6039e+00;5.1638e-01;1.4052e+01;2.8537e+00;9.3028e+00;5.7166e+00;7.1853e-02;6.3962e+03;"line";6.8664e+03;1;"L";0;9.5429e+03;6.8664e+03;1.3263e+04;1.1488e+04;1.1293e+00
1996-09-07T09:34:13.580;1.0919e+01;2.7678e+02;2.6036e+00;5.1652e-01;1.4055e+01;2.8015e+00;9.2970e+00;5.7234e+00;7.1392e-02;6.3852e+03;"line";6.5558e+03;1;"L";0;9.2108e+03;6.5558e+03;1.2941e+04;1.1208e+04;1.0521e+00
1996-09-07T09:34:50.913;1.0918e+01;2.7711e+02;2.6033e+00;5.1666e-01;1.4059e+01;2.7492e+00;9.2913e+00;5.7302e+00;7.0931e-02;6.3911e+03;"line";5.7058e+03;1;"L";0;8.3080e+03;5.7058e+03;1.2097e+04;1.0482e+04;8.5594e-01
1996-09-07T09:35:28.247;1.0916e+01;2.7744e+02;2.6029e+00;5.1680e-01;1.4062e+01;2.6955e+00;9.2854e+00;5.7371e+00;7.0458e-02;6.3963e+03;"line";6.4059e+03;1;"L";0;9.0559e+03;6.4059e+03;1.2802e+04;1.1087e+04;1.0170e+00
1996-09-07T09:36:05.580;1.0915e+01;2.7777e+02;2.6026e+00;5.1694e-01;1.4065e+01;2.6431e+00;9.2797e+00;5.7439e+00;6.9997e-02;6.3772e+03;"line";6.4059e+03;1;"L";0;9.0491e+03;6.4059e+03;1.2783e+04;1.1070e+04;1.0155e+00
1996-09-07T09:36:42.913;1.0914e+01;2.7809e+02;2.6023e+00;5.1708e-01;1.4068e+01;2.5906e+00;9.2739e+00;5.7507e+00;6.9536e-02;6.3397e+03;"line";6.4059e+03;1;"L";0;9.0358e+03;6.4059e+03;1.2746e+04;1.1038e+04;1.0125e+00
1996-09-07T09:37:20.247;1.0912e+01;2.7843e+02;2.6020e+00;5.1722e-01;1.4071e+01;2.5367e+00;9.2680e+00;5.7577e+00;6.9062e-02;6.3247e+03;"line";6.5558e+03;1;"L";0;9.1893e+03;6.5558e+03;1.2881e+04;1.1155e+04;1.0472e+00
1996-09-07T09:37:57.580;1.0911e+01;2.7876e+02;2.6017e+00;5.1735e-01;1.4074e+01;2.4841e+00;9.2623e+00;5.7645e+00;6.8601e-02;6.3735e+03;"line";7.0272e+03;1;"L";0;9.7041e+03;7.0272e+03;1.3401e+04;1.1610e+04;1.1678e+00
1996-09-07T09:38:34.913;1.0910e+01;2.7908e+02;2.6014e+00;5.1749e-01;1.4077e+01;2.4314e+00;9.2565e+00;5.7712e+00;6.8140e-02;6.3728e+03;"line";7.0272e+03;1;"L";0;9.7039e+03;7.0272e+03;1.3400e+04;1.1609e+04;1.1677e+00
1996-09-07T09:39:12.246;1.0909e+01;2.7942e+02;2.6011e+00;5.1763e-01;1.4081e+01;2.3773e+00;9.2506e+00;5.7782e+00;6.7667e-02;6.3972e+03;"line";6.8664e+03;1;"L";0;9.5433e+03;6.8664e+03;1.3264e+04;1.1489e+04;1.1294e+00
1996-09-07T09:39:49.580;1.0907e+01;2.7974e+02;2.6007e+00;5.1776e-01;1.4084e+01;2.3245e+00;9.2449e+00;5.7850e+00;6.7205e-02;6.3808e+03;"line";1.0659e+04;1;"L";0;1.3477e+04;1.0659e+04;1.7040e+04;1.4911e+04;2.2523e+00
1996-09-07T09:40:26.913;1.0906e+01;2.8007e+02;2.6004e+00;5.1790e-01;1.4087e+01;2.2717e+00;9.2391e+00;5.7917e+00;6.6744e-02;6.3559e+03;"line";8.6546e+03;1;"L";0;1.1398e+04;8.6546e+03;1.5011e+04;1.3050e+04;1.6110e+00
1996-09-07T09:41:04.246;1.0905e+01;2.8041e+02;2.6001e+00;5.1804e-01;1.4090e+01;2.2174e+00;9.2332e+00;5.7987e+00;6.6271e-02;6.3504e+03;"line";8.6546e+03;1;"L";0;1.1396e+04;8.6546e+03;1.5005e+04;1.3046e+04;1.6104e+00
1996-09-07T09:41:41.580;1.0903e+01;2.8073e+02;2.5998e+00;5.1817e-01;1.4093e+01;2.1645e+00;9.2274e+00;5.8055e+00;6.5810e-02;6.3474e+03;"line";5.4477e+03;1;"L";0;8.0160e+03;5.4477e+03;1.1795e+04;1.0225e+04;7.9683e-01
1996-09-07T09:42:18.913;1.0902e+01;2.8106e+02;2.5995e+00;5.1831e-01;1.4096e+01;2.1115e+00;9.2217e+00;5.8122e+00;6.5348e-02;6.3183e+03;"line";5.5753e+03;1;"L";0;8.1431e+03;5.5753e+03;1.1894e+04;1.0307e+04;8.2230e-01
1996-09-07T09:42:56.246;1.0901e+01;2.8139e+02;2.5992e+00;5.1844e-01;1.4100e+01;2.0570e+00;9.2157e+00;5.8192e+00;6.4875e-02;6.3273e+03;"line";5.4477e+03;1;"L";0;8.0092e+03;5.4477e+03;1.1775e+04;1.0207e+04;7.9547e-01
1996-09-07T09:43:33.580;1.0899e+01;2.8172e+02;2.5989e+00;5.1858e-01;1.4103e+01;2.0039e+00;9.2100e+00;5.8259e+00;6.4413e-02;6.3423e+03;"line";5.4477e+03;1;"L";0;8.0143e+03;5.4477e+03;1.1790e+04;1.0220e+04;7.9648e-01
1996-09-07T09:44:10.913;1.0898e+01;2.8205e+02;2.5986e+00;5.1871e-01;1.4106e+01;1.9508e+00;9.2042e+00;5.8327e+00;6.3952e-02;6.3452e+03;"line";5.4477e+03;1;"L";0;8.0153e+03;5.4477e+03;1.1793e+04;1.0223e+04;7.9668e-01
1996-09-07T09:44:48.246;1.0897e+01;2.8238e+02;2.5983e+00;5.1885e-01;1.4109e+01;1.8962e+00;9.1982e+00;5.8396e+00;6.3478e-02;6.3426e+03;"line";5.5753e+03;1;"L";0;8.1514e+03;5.5753e+03;1.1918e+04;1.0328e+04;8.2398e-01
1996-09-07T09:45:25.580;1.0896e+01;2.8271e+02;2.5980e+00;5.1898e-01;1.4112e+01;1.8430e+00;9.1924e+00;5.8464e+00;6.3017e-02;6.3453e+03;"line";5.5753e+03;1;"L";0;8.1523e+03;5.5753e+03;1.1921e+04;1.0331e+04;8.2416e-01
1996-09-07T09:46:02.913;1.0894e+01;2.8304e+02;2.5977e+00;5.1911e-01;1.4116e+01;1.7898e+00;9.1867e+00;5.8531e+00;6.2556e-02;6.3536e+03;"line";5.4477e+03;1;"L";0;8.0181e+03;5.4477e+03;1.1801e+04;1.0230e+04;7.9724e-01
1996-09-07T09:46:40.246;1.0893e+01;2.8337e+02;2.5974e+00;5.1925e-01;1.4119e+01;1.7350e+00;9.1807e+00;5.8600e+00;6.2082e-02;6.3512e+03;"line";5.5753e+03;1;"L";0;8.1544e+03;5.5753e+03;1.1927e+04;1.0336e+04;8.2457e-01
1996-09-07T09:47:17.580;1.0892e+01;2.8370e+02;2.5971e+00;5.1938e-01;1.4122e+01;1.6817e+00;9.1749e+00;5.8668e+00;6.1620e-02;6.3730e+03;"line";6.5558e+03;1;"L";0;9.2065e+03;6.5558e+03;1.2929e+04;1.1197e+04;1.0511e+00
1996-09-07T09:47:54.913;1.0891e+01;2.8402e+02;2.5968e+00;5.1951e-01;1.4125e+01;1.6283e+00;9.1691e+00;5.8735e+00;6.1159e-02;6.3801e+03;"line";5.3231e+03;1;"L";0;7.8928e+03;5.3231e+03;1.1703e+04;1.0149e+04;7.7253e-01
1996-09-07T09:48:32.246;1.0889e+01;2.8436e+02;2.5965e+00;5.1964e-01;1.4129e+01;1.5735e+00;9.1631e+00;5.8805e+00;6.0685e-02;6.3740e+03;"line";5.3231e+03;1;"L";0;7.8908e+03;5.3231e+03;1.1697e+04;1.0144e+04;7.7213e-01
1996-09-07T09:49:09.579;1.0888e+01;2.8469e+02;2.5962e+00;5.1978e-01;1.4132e+01;1.5201e+00;9.1573e+00;5.8872e+00;6.0224e-02;6.3874e+03;"line";5.3231e+03;1;"L";0;7.8953e+03;5.3231e+03;1.1710e+04;1.0156e+04;7.7301e-01
1996-09-07T09:49:46.913;1.0887e+01;2.8501e+02;2.5959e+00;5.1991e-01;1.4135e+01;1.4666e+00;9.1515e+00;5.8939e+00;5.9762e-02;6.4028e+03;"line";4.7414e+03;1;"L";0;7.2690e+03;4.7414e+03;1.1144e+04;9.6868e+03;6.5524e-01
1996-09-07T09:50:24.246;1.0886e+01;2.8535e+02;2.5956e+00;5.2004e-01;1.4138e+01;1.4117e+00;9.1456e+00;5.9009e+00;5.9288e-02;6.4231e+03;"line";4.6329e+03;1;"L";0;7.1569e+03;4.6329e+03;1.1056e+04;9.6165e+03;6.3518e-01
1996-09-07T09:51:01.579;1.0884e+01;2.8567e+02;2.5953e+00;5.2017e-01;1.4142e+01;1.3582e+00;9.1397e+00;5.9076e+00;5.8827e-02;6.4422e+03;"line";6.4059e+03;1;"L";0;9.0721e+03;6.4059e+03;1.2848e+04;1.1127e+04;1.0206e+00
1996-09-07T09:51:38.913;1.0883e+01;2.8600e+02;2.5950e+00;5.2030e-01;1.4145e+01;1.3046e+00;9.1339e+00;5.9143e+00;5.8365e-02;6.4594e+03;"line";7.1918e+03;1;"L";0;9.9084e+03;7.1918e+03;1.3651e+04;1.1828e+04;1.2175e+00
1996-09-07T09:52:16.245;1.0882e+01;2.8633e+02;2.5947e+00;5.2043e-01;1.4148e+01;1.2496e+00;9.1279e+00;5.9212e+00;5.7891e-02;6.4716e+03;"line";6.4059e+03;1;"L";0;9.0824e+03;6.4059e+03;1.2877e+04;1.1152e+04;1.0229e+00
1996-09-07T09:52:53.579;1.0881e+01;2.8666e+02;2.5944e+00;5.2056e-01;1.4151e+01;1.1960e+00;9.1221e+00;5.9280e+00;5.7429e-02;6.4950e+03;"line";7.1918e+03;1;"L";0;9.9213e+03;7.1918e+03;1.3687e+04;1.1858e+04;1.2206e+00
1996-09-07T09:53:30.913;1.0879e+01;2.8699e+02;2.5941e+00;5.2069e-01;1.4155e+01;1.1424e+00;9.1163e+00;5.9347e+00;5.6968e-02;6.4961e+03;"line";7.3602e+03;1;"L";0;1.0099e+04;7.3602e+03;1.3856e+04;1.2008e+04;1.2647e+00
1996-09-07T09:54:08.246;1.0878e+01;2.8732e+02;2.5938e+00;5.2082e-01;1.4158e+01;1.0874e+00;9.1103e+00;5.9416e+00;5.6494e-02;6.5329e+03;"line";6.4059e+03;1;"L";0;9.1040e+03;6.4059e+03;1.2939e+04;1.1205e+04;1.0278e+00
1996-09-07T09:54:45.579;1.0877e+01;2.8765e+02;2.5935e+00;5.2095e-01;1.4161e+01;1.0337e+00;9.1044e+00;5.9483e+00;5.6032e-02;6.5309e+03;"line";6.4059e+03;1;"L";0;9.1033e+03;6.4059e+03;1.2937e+04;1.1204e+04;1.0277e+00
1996-09-07T09:55:22.913;1.0876e+01;2.8797e+02;2.5932e+00;5.2108e-01;1.4165e+01;9.8009e-01;9.0986e+00;5.9550e+00;5.5570e-02;6.4844e+03;"line";7.3602e+03;1;"L";0;1.0094e+04;7.3602e+03;1.3845e+04;1.1998e+04;1.2636e+00
1996-09-07T09:56:00.246;1.0874e+01;2.8831e+02;2.5929e+00;5.2121e-01;1.4168e+01;9.2498e-01;9.0926e+00;5.9619e+00;5.5096e-02;6.4491e+03;"line";7.3602e+03;1;"L";0;1.0082e+04;7.3602e+03;1.3809e+04;1.1968e+04;1.2604e+00
1996-09-07T09:56:37.579;1.0873e+01;2.8864e+02;2.5926e+00;5.2133e-01;1.4171e+01;8.7130e-01;9.0867e+00;5.9686e+00;5.4634e-02;6.5561e+03;"line";8.8573e+03;1;"L";0;1.1684e+04;8.8573e+03;1.5413e+04;1.3398e+04;1.6930e+00
1996-09-07T09:57:14.912;1.0872e+01;2.8896e+02;2.5923e+00;5.2146e-01;1.4175e+01;8.1762e-01;9.0809e+00;5.9753e+00;5.4173e-02;6.5094e+03;"line";8.4566e+03;1;"L";0;1.1250e+04;8.4566e+03;1.4966e+04;1.2997e+04;1.5695e+00
1996-09-07T09:57:52.246;1.0871e+01;2.8930e+02;2.5920e+00;5.2159e-01;1.4178e+01;7.6247e-01;9.0749e+00;5.9822e+00;5.3698e-02;6.5067e+03;"line";5.7058e+03;1;"L";0;8.3476e+03;5.7058e+03;1.2212e+04;1.0584e+04;8.6411e-01
1996-09-07T09:58:29.579;1.0870e+01;2.8962e+02;2.5918e+00;5.2172e-01;1.4181e+01;7.0877e-01;9.0690e+00;5.9889e+00;5.3237e-02;6.5298e+03;"line";6.5558e+03;1;"L";0;9.2622e+03;6.5558e+03;1.3086e+04;1.1333e+04;1.0638e+00
1996-09-07T09:59:06.912;1.0868e+01;2.8995e+02;2.5915e+00;5.2184e-01;1.4185e+01;6.5507e-01;9.0632e+00;5.9956e+00;5.2775e-02;6.4875e+03;"line";6.4059e+03;1;"L";0;9.0880e+03;6.4059e+03;1.2893e+04;1.1166e+04;1.0242e+00
1996-09-07T09:59:44.246;1.0867e+01;2.9028e+02;2.5912e+00;5.2197e-01;1.4188e+01;5.9991e-01;9.0571e+00;6.0025e+00;5.2301e-02;6.5339e+03;"line";6.4059e+03;1;"L";0;9.1044e+03;6.4059e+03;1.2940e+04;1.1206e+04;1.0279e+00
1996-09-07T10:00:21.579;1.0866e+01;2.9061e+02;2.5909e+00;5.2210e-01;1.4191e+01;5.4621e-01;9.0513e+00;6.0092e+00;5.1839e-02;6.5651e+03;"line";6.5558e+03;1;"L";0;9.2746e+03;6.5558e+03;1.3121e+04;1.1363e+04;1.0667e+00
1996-09-07T10:00:58.912;1.0865e+01;2.9094e+02;2.5906e+00;5.2222e-01;1.4195e+01;4.9250e-01;9.0454e+00;6.0159e+00;5.1377e-02;6.5428e+03;"line";6.5558e+03;1;"L";0;9.2667e+03;6.5558e+03;1.3099e+04;1.1344e+04;1.0649e+00
1996-09-07T10:01:36.246;1.0864e+01;2.9127e+02;2.5903e+00;5.2235e-01;1.4198e+01;4.3735e-01;9.0394e+00;6.0228e+00;5.0902e-02;6.4882e+03;"line";6.5558e+03;1;"L";0;9.2474e+03;6.5558e+03;1.3044e+04;1.1296e+04;1.0604e+00
1996-09-07T10:02:13.579;1.0862e+01;2.9160e+02;2.5900e+00;5.2247e-01;1.4201e+01;3.8365e-01;9.0335e+00;6.0295e+00;5.0441e-02;6.4506e+03;"line";7.1918e+03;1;"L";0;9.9052e+03;7.1918e+03;1.3642e+04;1.1820e+04;1.2167e+00
1996-09-07T10:02:50.912;1.0861e+01;2.9192e+02;2.5898e+00;5.2260e-01;1.4205e+01;3.2996e-01;9.0276e+00;6.0362e+00;4.9979e-02;6.4786e+03;"line";7.3602e+03;1;"L";0;1.0092e+04;7.3602e+03;1.3839e+04;1.1993e+04;1.2631e+00
1996-09-07T10:03:28.246;1.0860e+01;2.9226e+02;2.5895e+00;5.2272e-01;1.4208e+01;2.7482e-01;9.0216e+00;6.0431e+00;4.9504e-02;6.4861e+03;"line";6.8664e+03;1;"L";0;9.5752e+03;6.8664e+03;1.3353e+04;1.1565e+04;1.1370e+00
1996-09-07T10:04:05.579;1.0859e+01;2.9258e+02;2.5892e+00;5.2285e-01;1.4211e+01;2.2115e-01;9.0157e+00;6.0497e+00;4.9042e-02;6.5091e+03;"line";5.9762e+03;1;"L";0;8.6379e+03;5.9762e+03;1.2485e+04;1.0816e+04;9.2526e-01
1996-09-07T10:04:42.912;1.0858e+01;2.9291e+02;2.5889e+00;5.2297e-01;1.4215e+01;1.6748e-01;9.0098e+00;6.0564e+00;4.8580e-02;6.5410e+03;"line";5.9762e+03;1;"L";0;8.6490e+03;5.9762e+03;1.2517e+04;1.0844e+04;9.2763e-01
1996-09-07T10:05:20.245;1.0856e+01;2.9325e+02;2.5886e+00;5.2310e-01;1.4218e+01;1.1238e-01;9.0037e+00;6.0633e+00;4.8106e-02;6.4883e+03;"line";6.5558e+03;1;"L";0;9.2474e+03;6.5558e+03;1.3044e+04;1.1297e+04;1.0605e+00
1996-09-07T10:05:57.579;1.0855e+01;2.9357e+02;2.5884e+00;5.2322e-01;1.4222e+01;5.8743e-02;8.9978e+00;6.0700e+00;4.7644e-02;6.5236e+03;"line";7.0272e+03;1;"L";0;9.7583e+03;7.0272e+03;1.3551e+04;1.1738e+04;1.1809e+00
1996-09-07T10:06:34.912;1.0854e+01;2.9390e+02;2.5881e+00;5.2334e-01;1.4225e+01;5.1227e-03;8.9919e+00;6.0766e+00;4.7182e-02;6.5628e+03;"line";6.8664e+03;1;"L";0;9.6027e+03;6.8664e+03;1.3429e+04;1.1631e+04;1.1435e+00
1996-09-07T10:07:12.245;1.0853e+01;2.9423e+02;2.5878e+00;5.2346e-01;1.4229e+01;-4.9928e-02;8.9859e+00;6.0835e+00;4.6707e-02;6.5631e+03;"line";6.5558e+03;1;"L";0;9.2739e+03;6.5558e+03;1.3119e+04;1.1361e+04;1.0665e+00